Home > Time Zones > World Clock > Weather > Russia > Ufa > Past weeks

Flag for Russia Weather past 2 weeks in Ufa, Russia

Now
54 °F

Passing clouds.


Feels Like: 52 °F
Forecast: 36 / 58 °F
Wind: 6 mph from North

Location: Ufa


UV Index: 3 (Moderate)

Visibility: N/A


Pressure: 30.24 "Hg

Humidity: 38%

Dew point: 28 °F

Location of UfaLocation

Historic Weather in Ufa

°F

Ufa temperature yesterday

Maximum temperature yesterday: 50 °F (at 1:30 AM)
Minimum temperature yesterday: 37 °F (at 11:30 PM)
Average temperature yesterday: 45 °F

Past Weeks' High & Low Weather Summary

 TemperatureHumidityPressure
High59 °F (Apr 17, 4:30 PM)100% (Apr 7, 1:30 PM)30.57 "Hg (Apr 7, 1:30 PM)
Low16 °F (Apr 11, 7:30 AM)35% (Apr 14, 5:30 PM)29.59 "Hg (Apr 7, 4:30 PM)
Average36 °F68%30.10 "Hg
* Reported Apr 4 5:00 PM — Apr 19 5:30 PM, Ufa, Weather by CustomWeather, © 2014

Note: Actual official high and low records may vary slightly from our data, if they occured in-between our weather recording intervals... More about our weather records

Advertising

Historic Weather Conditions — Data for Previous 24 hours

 ConditionsComfort  
Time TempWeatherWind HumidityBarometerVisibility
5:30 PM
Apr 19
55 °FPassing clouds.8 mph38%30.24 "HgN/A
5:00 PM55 °FPassing clouds.10 mph38%30.24 "HgN/A
4:30 PM55 °FPassing clouds.8 mph38%30.24 "HgN/A
4:00 PM55 °FPassing clouds.8 mph38%30.27 "HgN/A
3:30 PM54 °FPassing clouds.6 mph41%30.27 "HgN/A
3:00 PM54 °FPassing clouds.10 mph41%30.27 "HgN/A
2:30 PM54 °FPassing clouds.8 mph44%30.27 "HgN/A
2:00 PM52 °FPassing clouds.8 mph47%30.27 "HgN/A
1:30 PM52 °FPassing clouds.8 mph47%30.27 "HgN/A
1:00 PM52 °FPassing clouds.8 mph47%30.27 "HgN/A
12:30 PM50 °FPassing clouds.10 mph47%30.30 "HgN/A
12:00 PM48 °FPassing clouds.8 mph50%30.30 "HgN/A
11:30 AM46 °FPassing clouds.8 mph53%30.30 "HgN/A
11:00 AM45 °FPassing clouds.6 mph57%30.30 "HgN/A
10:30 AM41 °FPassing clouds.6 mph70%30.30 "HgN/A
10:00 AM39 °FPassing clouds.6 mph75%30.30 "HgN/A
9:30 AM37 °FPassing clouds.3 mph75%30.30 "HgN/A
9:00 AM34 °FSunny.3 mph87%30.30 "Hg10 mi
8:30 AM32 °FSunny.1 mph87%30.30 "Hg10 mi
8:00 AM30 °FPassing clouds.3 mph86%30.30 "HgN/A
7:30 AM28 °FPassing clouds.3 mph93%30.30 "HgN/A
7:00 AM28 °FClear.1 mph93%30.30 "Hg10 mi
6:30 AM28 °FClear.1 mph86%30.27 "Hg10 mi
6:00 AM28 °FClear.1 mph93%30.27 "Hg10 mi
5:30 AM30 °FClear.1 mph86%30.30 "Hg10 mi
5:00 AM30 °FPassing clouds.3 mph86%30.27 "HgN/A
4:30 AM28 °FClear.1 mph86%30.27 "Hg10 mi
4:00 AM30 °FClear.1 mph86%30.27 "Hg10 mi
3:30 AM28 °FClear.1 mph86%30.27 "Hg10 mi
3:00 AM28 °FClear.1 mph86%30.27 "Hg10 mi
2:30 AM28 °FClear.3 mph86%30.27 "Hg10 mi
2:00 AM30 °FClear.1 mph86%30.27 "Hg10 mi
1:30 AM30 °FClear.No wind86%30.27 "Hg10 mi
1:00 AM34 °FClear.3 mph75%30.27 "Hg10 mi
12:30 AM34 °FClear.No wind75%30.27 "Hg10 mi
12:00 AM37 °FClear.3 mph70%30.27 "Hg10 mi
11:30 PM
Apr 18
37 °FClear.1 mph70%30.27 "Hg10 mi
11:00 PM39 °FClear.3 mph65%30.24 "Hg10 mi
10:30 PM41 °FClear.3 mph61%30.24 "Hg10 mi
10:00 PM43 °FClear.3 mph57%30.24 "Hg10 mi
9:30 PM43 °FClear.8 mph57%30.24 "Hg10 mi
9:00 PM45 °FSunny.8 mph53%30.24 "Hg10 mi
8:30 PM46 °FSunny.8 mph53%30.24 "Hg10 mi
8:00 PM48 °FSunny.10 mph43%30.24 "Hg10 mi
7:30 PM48 °FPassing clouds.8 mph43%30.24 "HgN/A
7:00 PM50 °FPassing clouds.6 mph40%30.24 "HgN/A
6:30 PM50 °FPassing clouds.6 mph43%30.24 "HgN/A
6:00 PM50 °FPassing clouds.3 mph40%30.24 "HgN/A
Weather by CustomWeather, © 2014

See weather overview